Hourly Weather Mont-Saint-Aignan

Today, 27 November, Friday

Time Temperature Precipitation Wind Pressure Humidity
00:00 +7°C° 0 mm 1 mps 751 mmHg 89%
01:00 +7°C° 0 mm 1 mps 751 mmHg 88%
02:00 +7°C° 0 mm 1 mps 751 mmHg 87%
03:00 +8°C° 0 mm 1 mps 751 mmHg 86%
04:00 +6°C° 0.1 mm 2 mps 750 mmHg 87%
05:00 +6°C° 0.1 mm 2 mps 750 mmHg 88%
06:00 +6°C° 0.1 mm 2 mps 750 mmHg 89%
07:00 +6°C° 0 mm 2 mps 750 mmHg 89%
08:00 +7°C° 0 mm 2 mps 750 mmHg 88%
09:00 +7°C° 0 mm 2 mps 750 mmHg 88%
10:00 +7°C° 0 mm 2 mps 750 mmHg 86%
11:00 +8°C° 0 mm 3 mps 750 mmHg 85%
12:00 +8°C° 0 mm 3 mps 749 mmHg 83%
13:00 +8°C° 0 mm 3 mps 749 mmHg 83%
14:00 +9°C° 0 mm 3 mps 749 mmHg 83%
15:00 +9°C° 0 mm 3 mps 749 mmHg 83%
16:00 +8°C° 0 mm 3 mps 748 mmHg 86%
17:00 +7°C° 0 mm 3 mps 748 mmHg 88%
18:00 +5°C° 0 mm 3 mps 748 mmHg 91%
19:00 +5°C° 0 mm 3 mps 748 mmHg 92%
20:00 +5°C° 0 mm 3 mps 748 mmHg 92%
21:00 +5°C° 0 mm 3 mps 749 mmHg 92%
22:00 +5°C° 0 mm 3 mps 749 mmHg 92%
23:00 +5°C° 0 mm 3 mps 748 mmHg 92%

Tomorrow, 28 November, Saturday

Time Temperature Precipitation Wind Pressure Humidity
00:00 +5°C° 0 mm 3 mps 748 mmHg 92%
01:00 +5°C° 0 mm 3 mps 748 mmHg 93%
02:00 +5°C° 0 mm 3 mps 748 mmHg 93%
03:00 +4°C° 0 mm 3 mps 748 mmHg 93%
04:00 +4°C° 0 mm 3 mps 748 mmHg 93%
05:00 +4°C° 0 mm 3 mps 748 mmHg 93%
06:00 +4°C° 0 mm 3 mps 749 mmHg 93%
07:00 +5°C° 0 mm 3 mps 749 mmHg 90%
08:00 +5°C° 0 mm 3 mps 749 mmHg 87%
09:00 +5°C° 0 mm 3 mps 749 mmHg 84%
10:00 +8°C° 0 mm 3 mps 749 mmHg 79%
11:00 +9°C° 0 mm 3 mps 749 mmHg 75%
12:00 +10°C° 0 mm 4 mps 749 mmHg 70%
13:00 +10°C° 0 mm 3 mps 749 mmHg 71%
14:00 +10°C° 0 mm 3 mps 749 mmHg 73%
15:00 +9°C° 0 mm 3 mps 749 mmHg 74%
16:00 +8°C° 0 mm 3 mps 750 mmHg 76%
17:00 +7°C° 0 mm 3 mps 750 mmHg 79%
18:00 +5°C° 0 mm 3 mps 750 mmHg 81%
19:00 +5°C° 0 mm 3 mps 750 mmHg 84%
20:00 +5°C° 0 mm 3 mps 751 mmHg 86%
21:00 +4°C° 0 mm 3 mps 751 mmHg 88%
22:00 +4°C° 0 mm 3 mps 751 mmHg 89%
23:00 +4°C° 0 mm 3 mps 751 mmHg 89%

Day after tomorrow, 29 November, Sunday

Time Temperature Precipitation Wind Pressure Humidity
00:00 +4°C° 0 mm 3 mps 752 mmHg 90%
01:00 +3°C° 0 mm 3 mps 752 mmHg 90%
02:00 +4°C° 0 mm 2 mps 752 mmHg 89%
03:00 +4°C° 0 mm 2 mps 752 mmHg 89%
04:00 +3°C° 0 mm 2 mps 752 mmHg 88%
05:00 +3°C° 0 mm 2 mps 752 mmHg 88%
06:00 +3°C° 0 mm 2 mps 752 mmHg 87%
07:00 +3°C° 0 mm 2 mps 753 mmHg 85%
08:00 +3°C° 0 mm 3 mps 753 mmHg 83%
09:00 +3°C° 0 mm 3 mps 753 mmHg 80%
10:00 +5°C° 0 mm 3 mps 753 mmHg 76%
11:00 +7°C° 0 mm 3 mps 754 mmHg 72%
12:00 +8°C° 0 mm 3 mps 754 mmHg 68%
13:00 +8°C° 0 mm 2 mps 754 mmHg 70%
14:00 +8°C° 0 mm 2 mps 754 mmHg 73%
15:00 +7°C° 0 mm 2 mps 754 mmHg 76%
16:00 +6°C° 0 mm 2 mps 754 mmHg 80%
17:00 +5°C° 0 mm 2 mps 755 mmHg 84%
18:00 +3°C° 0 mm 2 mps 755 mmHg 89%
19:00 +3°C° 0 mm 2 mps 755 mmHg 86%
20:00 +2°C° 0 mm 2 mps 756 mmHg 84%
21:00 +2°C° 0 mm 2 mps 756 mmHg 81%
22:00 +2°C° 0 mm 2 mps 756 mmHg 79%
23:00 +1°C° 0 mm 2 mps 756 mmHg 78%

30 November, Monday

Time Temperature Precipitation Wind Pressure Humidity
00:00 +1°C° 0 mm 2 mps 756 mmHg 76%
01:00 +1°C° 0 mm 2 mps 756 mmHg 76%
02:00 +1°C° 0 mm 2 mps 756 mmHg 77%
03:00 -1°C° 0 mm 2 mps 757 mmHg 77%
04:00 -1°C° 0 mm 2 mps 757 mmHg 77%
05:00 -1°C° 0 mm 2 mps 757 mmHg 78%
06:00 -1°C° 0 mm 2 mps 757 mmHg 79%
07:00 -1°C° 0 mm 2 mps 758 mmHg 76%
08:00 +1°C° 0 mm 2 mps 758 mmHg 73%
09:00 +2°C° 0 mm 1 mps 758 mmHg 71%
10:00 +3°C° 0 mm 2 mps 758 mmHg 66%
11:00 +4°C° 0 mm 2 mps 759 mmHg 61%
12:00 +6°C° 0 mm 2 mps 759 mmHg 55%
13:00 +7°C° 0 mm 1 mps 759 mmHg 58%
14:00 +6°C° 0 mm 1 mps 758 mmHg 61%
15:00 +6°C° 0 mm 1 mps 758 mmHg 64%
16:00 +5°C° 0 mm 1 mps 758 mmHg 67%
17:00 +4°C° 0 mm 1 mps 759 mmHg 70%
18:00 +3°C° 0 mm 1 mps 759 mmHg 73%
19:00 +3°C° 0 mm 1 mps 759 mmHg 73%
20:00 +3°C° 0 mm 1 mps 759 mmHg 73%
21:00 +2°C° 0 mm 1 mps 760 mmHg 74%
22:00 +2°C° 0 mm 1 mps 760 mmHg 74%
23:00 +1°C° 0 mm 0 mps 760 mmHg 74%

1 December, Tuesday

Time Temperature Precipitation Wind Pressure Humidity
00:00 +1°C° 0 mm 0 mps 760 mmHg 74%
01:00 +1°C° 0 mm 0 mps 759 mmHg 75%
02:00 +1°C° 0 mm 0 mps 759 mmHg 75%
03:00 +1°C° 0 mm 0 mps 759 mmHg 75%
04:00 +1°C° 0 mm 0 mps 759 mmHg 76%
05:00 +1°C° 0 mm 0 mps 759 mmHg 77%
06:00 +1°C° 0 mm 0 mps 759 mmHg 78%
07:00 +2°C° 0 mm 0 mps 759 mmHg 77%
08:00 +2°C° 0 mm 0 mps 760 mmHg 77%
09:00 +3°C° 0 mm 0 mps 760 mmHg 76%
10:00 +4°C° 0 mm 0 mps 759 mmHg 74%
11:00 +6°C° 0 mm 0 mps 759 mmHg 72%
12:00 +8°C° 0 mm 1 mps 759 mmHg 69%
13:00 +6°C° 0 mm 0 mps 759 mmHg 73%
14:00 +6°C° 0 mm 0 mps 759 mmHg 76%
15:00 +6°C° 0 mm 0 mps 758 mmHg 79%
16:00 +5°C° 0 mm 0 mps 758 mmHg 81%
17:00 +4°C° 0 mm 0 mps 758 mmHg 84%
18:00 +3°C° 0 mm 0 mps 758 mmHg 86%
19:00 +3°C° 0 mm 0 mps 758 mmHg 88%
20:00 +4°C° 0 mm 1 mps 758 mmHg 89%
21:00 +4°C° 0 mm 1 mps 758 mmHg 90%
22:00 +3°C° 0 mm 1 mps 758 mmHg 90%
23:00 +3°C° 0 mm 1 mps 758 mmHg 90%

2 December, Wednesday

Time Temperature Precipitation Wind Pressure Humidity
00:00 +3°C° 0 mm 1 mps 758 mmHg 90%
01:00 +3°C° 0 mm 1 mps 757 mmHg 90%
02:00 +3°C° 0 mm 1 mps 757 mmHg 90%
03:00 +2°C° 0 mm 1 mps 757 mmHg 90%
04:00 +2°C° 0 mm 1 mps 756 mmHg 90%
05:00 +2°C° 0 mm 1 mps 756 mmHg 91%
06:00 +2°C° 0 mm 1 mps 756 mmHg 91%
07:00 +3°C° 0 mm 1 mps 755 mmHg 89%
08:00 +3°C° 0 mm 1 mps 755 mmHg 88%
09:00 +4°C° 0 mm 1 mps 755 mmHg 87%
10:00 +5°C° 0 mm 1 mps 755 mmHg 83%
11:00 +6°C° 0 mm 1 mps 754 mmHg 78%
12:00 +6°C° 0 mm 2 mps 754 mmHg 74%
13:00 +6°C° 0 mm 2 mps 753 mmHg 76%
14:00 +7°C° 0 mm 1 mps 753 mmHg 78%
15:00 +7°C° 0 mm 1 mps 752 mmHg 80%
16:00 +6°C° 0 mm 1 mps 752 mmHg 83%
17:00 +4°C° 0 mm 2 mps 751 mmHg 86%
18:00 +3°C° 0 mm 2 mps 751 mmHg 88%
19:00 +3°C° 0 mm 2 mps 751 mmHg 88%
20:00 +3°C° 0 mm 2 mps 750 mmHg 88%
21:00 +3°C° 0 mm 2 mps 750 mmHg 88%
22:00 +3°C° 0 mm 2 mps 749 mmHg 88%
23:00 +2°C° 0 mm 2 mps 749 mmHg 88%
Show more